This demonstration page uses our WeatherBlox Daily Observations layout. Learn more.

Left ArrowRight Arrow

Hourly Observations for May 25, 2020

Temp ( °F °C ) Dew Point ( °F °C ) Humidity (%) Winds ( mph kmh ) Pressure ( in mb ) Visibility ( mi km ) Precip ( " mm )
12:15 am 00:15 Cloudy 61 16 57 14 88 88 SE 5 7 30.22 1023 10 16 N/A
12:35 am 00:35 Cloudy 61 16 57 14 88 88 S 3 6 30.21 1023 10 16 N/A
12:55 am 00:55 Cloudy 61 16 57 14 88 88 S 5 7 30.21 1023 10 16 N/A
1:15 am 01:15 Cloudy 61 16 57 14 88 88 S 5 7 30.20 1023 10 16 N/A
1:35 am 01:35 Cloudy 61 16 57 14 88 88 N N/A 30.20 1023 10 16 N/A
1:55 am 01:55 Cloudy 59 15 57 14 94 94 S 5 7 30.20 1023 10 16 N/A
2:15 am 02:15 Cloudy 61 16 57 14 88 88 S 6 9 30.20 1023 10 16 N/A
2:35 am 02:35 Cloudy 61 16 57 14 88 88 SSE 3 6 30.20 1023 10 16 N/A
2:55 am 02:55 Cloudy 61 16 57 14 88 88 SSE 5 7 30.20 1023 10 16 N/A
3:15 am 03:15 Cloudy 61 16 57 14 88 88 SSE 5 7 30.20 1023 10 16 N/A
3:35 am 03:35 Cloudy 59 15 57 14 94 94 S 6 9 30.20 1023 10 16 N/A
3:55 am 03:55 Cloudy 59 15 57 14 94 94 N N/A 30.20 1023 10 16 N/A
4:15 am 04:15 Cloudy 59 15 57 14 94 94 N N/A 30.19 1022 10 16 N/A
4:35 am 04:35 Cloudy 59 15 57 14 94 94 N N/A 30.19 1022 10 16 N/A
4:55 am 04:55 Cloudy 59 15 57 14 94 94 N N/A 30.19 1022 10 16 N/A
5:15 am 05:15 Cloudy 59 15 57 14 94 94 N N/A 30.19 1022 10 16 N/A
5:35 am 05:35 Cloudy 59 15 57 14 94 94 N N/A 30.20 1023 10 16 N/A
5:55 am 05:55 Cloudy 59 15 57 14 94 94 N N/A 30.21 1023 10 16 N/A
6:15 am 06:15 Cloudy 59 15 57 14 94 94 N N/A 30.21 1023 10 16 N/A
6:35 am 06:35 Cloudy 59 15 57 14 94 94 N N/A 30.21 1023 10 16 N/A
6:55 am 06:55 Cloudy 59 15 57 14 94 94 N N/A 30.22 1023 10 16 N/A
7:15 am 07:15 Cloudy 59 15 57 14 94 94 ESE 5 7 30.23 1024 10 16 N/A
7:35 am 07:35 Cloudy 59 15 57 14 94 94 N N/A 30.22 1023 10 16 N/A
7:55 am 07:55 Cloudy 59 15 57 14 94 94 E 3 6 30.22 1023 10 16 N/A
8:15 am 08:15 Cloudy 59 15 55 13 88 88 E 3 6 30.22 1023 10 16 N/A
8:35 am 08:35 Cloudy 61 16 55 13 83 83 SE 7 11 30.22 1023 10 16 N/A
8:55 am 08:55 Cloudy 61 16 57 14 88 88 SE 6 9 30.22 1023 10 16 N/A
9:15 am 09:15 Cloudy 61 16 57 14 88 88 ESE 3 6 30.23 1024 10 16 N/A
9:35 am 09:35 Cloudy 63 17 57 14 83 83 N N/A 30.23 1024 10 16 N/A
9:55 am 09:55 Cloudy 63 17 57 14 83 83 SSE 3 6 30.23 1024 10 16 N/A
10:15 am 10:15 Cloudy 63 17 57 14 83 83 N N/A 30.23 1024 10 16 N/A
10:35 am 10:35 Cloudy 63 17 59 15 88 88 N N/A 30.24 1024 10 16 N/A
10:55 am 10:55 Cloudy 63 17 59 15 88 88 N N/A 30.24 1024 10 16 N/A
11:15 am 11:15 Cloudy 63 17 59 15 88 88 N N/A 30.25 1024 10 16 N/A
11:35 am 11:35 Cloudy 64 18 59 15 83 83 N N/A 30.24 1024 10 16 N/A
11:55 am 11:55 Cloudy 64 18 59 15 83 83 N N/A 30.23 1024 10 16 N/A
12:15 pm 12:15 Cloudy 68 20 61 16 78 78 N N/A 30.23 1024 10 16 N/A
12:35 pm 12:35 Cloudy 68 20 61 16 78 78 N N/A 30.23 1024 10 16 N/A
12:55 pm 12:55 Cloudy 68 20 61 16 78 78 N N/A 30.23 1024 10 16 N/A
1:15 pm 13:15 Cloudy 68 20 61 16 78 78 N N/A 30.23 1024 10 16 N/A
1:35 pm 13:35 Cloudy 68 20 61 16 78 78 N N/A 30.23 1024 10 16 N/A
1:55 pm 13:55 Cloudy 68 20 61 16 78 78 N N/A 30.22 1023 10 16 N/A
2:15 pm 14:15 Cloudy 70 21 61 16 73 73 N N/A 30.21 1023 10 16 N/A
2:35 pm 14:35 Cloudy 72 22 63 17 73 73 N N/A 30.21 1023 10 16 N/A
2:55 pm 14:55 Cloudy 72 22 63 17 73 73 N N/A 30.19 1022 10 16 N/A
3:15 pm 15:15 Cloudy 73 23 63 17 69 69 SE 6 9 30.19 1022 10 16 N/A
3:35 pm 15:35 Mostly Cloudy 73 23 63 17 69 69 S 5 7 30.19 1022 10 16 N/A
3:55 pm 15:55 Mostly Cloudy 73 23 63 17 69 69 SE 5 7 30.18 1022 10 16 N/A
4:15 pm 16:15 Partly Cloudy 73 23 61 16 65 65 SSE 3 6 30.17 1022 10 16 N/A
4:35 pm 16:35 Sunny 73 23 63 17 69 69 SE 3 6 30.17 1022 10 16 N/A
4:55 pm 16:55 Partly Cloudy 75 24 63 17 65 65 SSE 5 7 30.16 1021 10 16 N/A
5:15 pm 17:15 Partly Cloudy 75 24 63 17 65 65 N N/A 30.16 1021 10 16 N/A
5:35 pm 17:35 Sunny 77 25 63 17 61 61 SSE 3 6 30.14 1021 10 16 N/A
5:55 pm 17:55 Partly Cloudy 75 24 61 16 61 61 N N/A 30.14 1021 10 16 N/A
6:15 pm 18:15 Partly Cloudy 75 24 63 17 65 65 ENE 6 9 30.14 1021 10 16 N/A
6:35 pm 18:35 Sunny 73 23 63 17 69 69 ESE 3 6 30.14 1021 10 16 N/A
6:55 pm 18:55 Sunny 73 23 63 17 69 69 SE 5 7 30.14 1021 10 16 N/A
7:15 pm 19:15 Sunny 73 23 63 17 69 69 E 5 7 30.14 1021 10 16 N/A
7:35 pm 19:35 Sunny 73 23 63 17 69 69 ESE 5 7 30.14 1021 10 16 N/A
7:55 pm 19:55 Sunny 73 23 63 17 69 69 N N/A 30.14 1021 10 16 N/A
8:15 pm 20:15 Sunny 72 22 63 17 73 73 N N/A 30.15 1021 10 16 N/A
8:35 pm 20:35 Clear 72 22 63 17 73 73 N N/A 30.15 1021 10 16 N/A
8:55 pm 20:55 Clear 70 21 63 17 78 78 N N/A 30.15 1021 10 16 N/A
9:15 pm 21:15 Clear 70 21 63 17 78 78 SSE 5 7 30.16 1021 10 16 N/A
9:35 pm 21:35 Partly Cloudy 68 20 63 17 83 83 SSE 6 9 30.17 1022 10 16 N/A
9:55 pm 21:55 Partly Cloudy 64 18 63 17 94 94 SSE 5 7 30.17 1022 10 16 N/A
10:15 pm 22:15 Cloudy 68 20 63 17 83 83 N N/A 30.18 1022 10 16 N/A
10:35 pm 22:35 Mostly Cloudy 68 20 63 17 83 83 SE 3 6 30.18 1022 10 16 N/A
10:55 pm 22:55 Partly Cloudy 68 20 63 17 83 83 SSE 3 6 30.18 1022 10 16 N/A
11:15 pm 23:15 Clear 64 18 63 17 94 94 SSE 5 7 30.18 1022 10 16 N/A
11:35 pm 23:35 Clear 64 18 63 17 94 94 SSE 5 7 30.18 1022 10 16 N/A
11:55 pm 23:55 Clear 64 18 63 17 94 94 SSE 5 7 30.18 1022 10 16 N/A

Powered by AerisWeather